Regional Weather Roundup
Issued by NWS

Home | Current Version | Previous Version | Text Only | Print | Product List | Glossary On
Versions: 1 2 3 4 5 6 7 8 9 10 11 12 13 14 15 16 17 18 19 20 21 22 23 24 25 26 27 28 29 30 31 32 33 34 35 36 37 38 39 40 41 42 43 44 45 46 47 48 49 50
000
ASUS46 KLOX 291013
RWRCA

SOUTHERN CALIFORNIA WEATHER ROUNDUP
NATIONAL WEATHER SERVICE OXNARD CALIFORNIA
300 AM PDT FRI APR 29 2016

NOTE: "FAIR" INDICATES FEW OR NO CLOUDS BELOW 12,000 FEET WITH NO
SIGNIFICANT WEATHER AND/OR OBSTRUCTIONS TO VISIBILITY.

  -  STATIONS PRECEEDED BY AN ASTERISK (*) ARE NOT NWS OR FAA
     STATIONS AND ARE NOT SUBJECT TO NWS AND FAA QUALITY CONTROL.

CAZ041-042-087-291100-
LA AND ORANGE COUNTY COASTAL AREAS


CITY           SKY/WX    TMP DP  RH WIND       PRES   REMARKS
L.A. DOWNTOWN  PTCLDY    58  51  78 VRB3      29.97F
L.A. AIRPORT   MOCLDY    57  50  77 E6        29.98S
LONG BEACH     CLEAR     56  50  80 E6        29.97F

CITY           SKY/WX    TMP DP  RH WIND       PRES   REMARKS
AVALON           N/A     54 N/A N/A MISG        N/A
FULLERTON      CLOUDY    57  49  74 E7        29.97F
*GETTY CENTER    N/A     50  50 100 E3          N/A
HAWTHORNE      MOCLDY    59  50  72 E7        29.98F
*LEO CARRILLO    N/A     54  48  80 N5          N/A
*LOS ALAMITOS  FAIR      55  50  81 E5        29.97F
*REDONDO BEACH   N/A     56  50  82 CALM      29.97R
SANTA ANA      MOCLDY    56  48  74 E6        29.97S
STA MONICA APT CLEAR     55  50  83 CALM      29.98S
*STA MON PIER    N/A     57  52  81 E6        29.91S
*UCLA            N/A     54  48  82 NE2       29.95S

$$

CAZ547-548-048-291100-
LA COUNTY VALLEYS AND INLAND EMPIRE


CITY           SKY/WX    TMP DP  RH WIND       PRES   REMARKS
BURBANK        PTCLDY    55  48  77 CALM      29.97S
VAN NUYS       MOCLDY    55  49  80 E5        29.97S

CITY           SKY/WX    TMP DP  RH WIND       PRES   REMARKS
CORONA AIRPORT SUNNY     49  44  83 CALM      29.99R
*CHATSWORTH      N/A     54  47  78 E1        29.98S
CHINO          CLEAR     50  46  86 CALM      29.99R
*CLAREMONT       N/A     47  45  92 NW2         N/A
MARCH AFB      CLEAR     47  47 100 SE5       29.97S
*NORTHRIDGE      N/A     54  46  76 N1          N/A
ONTARIO        CLEAR     52  46  80 W5        29.97S
*PASADENA        N/A     55  50  82 CALM        N/A
RIVERSIDE      CLEAR     52  45  77 E3        29.98S
SAN BERNARDINO NOT AVBL
*SAN GABRIEL     N/A     56  50  80 E2        30.05S
*SAN RAFAEL HI   N/A     49  49  99 CALM        N/A
*SAUGUS          N/A     53  47  79 W2          N/A
*WHITEMAN AP   NOT AVBL
*WHITTIER HILL   N/A     51  50  97 SE6         N/A
*WOODLAND HILL   N/A     50  46  87 SE1         N/A

$$

CAZ054-055-291100-
LA AND SAN BERNARDINO COUNTY MOUNTAINS


CITY           SKY/WX    TMP DP  RH WIND       PRES   REMARKS
*ACTON           N/A     44  35  70 N7          N/A
*BIG BEAR AIRP SUNNY     30  28  93 CALM      30.01S
*BIG PINES       N/A     34  29  81 CALM        N/A
*CHILAO          N/A     43  32  66 CALM        N/A
SANDBERG       CLEAR     50  39  66 NW13      30.01S
*WARM SPRINGS    N/A     48  34  58 W9          N/A

$$

CAZ028-029-059-060-099-291100-
ANTELOPE VALLEY AND SURROUNDING AREAS


CITY           SKY/WX    TMP DP  RH WIND       PRES   REMARKS
LANCASTER      CLEAR     55  40  56 W12       29.93F
PALMDALE       CLEAR     48  38  68 S8        29.94F
*POPPY PARK      N/A     55  40  56 W15         N/A

CITY           SKY/WX    TMP DP  RH WIND       PRES   REMARKS
29 PALMS       PTCLDY    57  34  41 VRB3      29.94R
BARSTOW/DAGGET CLEAR     56  38  50 W15       29.90S
BISHOP         PTCLDY    47  30  51 NW13      29.97F
CHINA LAKE     CLEAR     57  30  35 NW8       29.88F
EDWARDS AFB    CLEAR     51  37  60 SW8       29.90F
MOJAVE         CLEAR     55  39  54 W17       29.92F
NEEDLES        CLEAR     60  54  80 CALM      29.82S
VICTORVILLE    CLEAR     48  37  66 CALM      29.94S

$$

CAZ039-040-291100-
VENTURA AND SANTA BARBARA COUNTY COAST


CITY           SKY/WX    TMP DP  RH WIND       PRES   REMARKS
CAMARILLO      CLEAR     52  47  83 CALM      29.97S
NWS OXNARD       N/A     53  48  84 CALM      29.96S
OXNARD AIRPORT MOCLDY    54  50  86 CALM      29.97R
*POINT MUGU    CLOUDY    54  50  86 W5        29.98S
SBA APT/GOLETA CLEAR     55  50  83 E6        29.95R
*SANTA BARBARA   N/A     56  49  76 CALM      30.03S
*VENTURA         N/A     51  48  89 CALM      29.95F

$$

CAZ044-045-291100-
VENTURA COUNTY VALLEYS


CITY           SKY/WX    TMP DP  RH WIND       PRES   REMARKS
*SIMI VALLEY     N/A     53  48  83 E5        29.93R
*WESTLAKE VILL   N/A     51  47  84 CALM      29.95S
*OJAI            N/A     47  44  90 CALM      29.91F
*FILLMORE        N/A     49  45  84 CALM      29.86S

$$

CAZ053-291100-
VENTURA COUNTY MOUNTAINS


CITY           SKY/WX    TMP DP  RH WIND       PRES   REMARKS
*LOCKWOOD VLY    N/A     41  34  75 MISG        N/A
*ROSE VALLEY     N/A     50  41  71 MISG        N/A

$$

CAZ034-035-036-291100-
CENTRAL COAST AND SANTA YNEZ VALLEY


CITY           SKY/WX    TMP DP  RH WIND       PRES   REMARKS
SAN LUIS OBISP CLOUDY    51  46  83 E5        30.02R
SANTA MARIA    CLOUDY    53  48  83 W8        30.02R

CITY           SKY/WX    TMP DP  RH WIND       PRES   REMARKS
*CAL POLY SLO    N/A     48  48 100 NE2         N/A
*LOMPOC        CLOUDY    52  49  89 W9        30.02R
*PISMO BEACH     N/A     49  46  89 CALM      30.02S
*SANTA YNEZ    CLOUDY    52  46  82 W5        30.00S

$$

CAZ037-038-051-291100-
SAN LUIS OBISPO COUNTY INTERIOR AND CUYAMA VALLEY


CITY           SKY/WX    TMP DP  RH WIND       PRES   REMARKS
*CUYAMA          N/A     46  42  83 CALM      29.95F
PASO ROBLES    CLEAR     47  44  90 W7        30.00R

$$

CAZ032-033-061-291100-
SOUTHERN DESERTS


CITY           SKY/WX    TMP DP  RH WIND       PRES   REMARKS
BLYTHE         PTCLDY    63  40  42 W5        29.80S
IMPERIAL       CLEAR     60  43  53 W6        29.83S
PALM SPRINGS   CLEAR     64  42  44 NW9G20    29.85S
THERMAL        CLEAR     64  42  44 NW17G26   29.81R

$$

ELSEWHERE ACROSS THE WESTERN UNITED STATES AND MEXICO


CITY           SKY/WX    TMP DP  RH WIND       PRES   REMARKS
DENVER, CO     LGT SNOW  33  30  88 E7        30.02F FOG     WCI  27
GRAND CANYON,  CLOUDY    38  36  92 CALM      29.87S
HONOLULU, HI   PTCLDY    75  66  73 E10       30.11F
KAHULUI, MAUI  PTCLDY    75  63  64 E10G23    30.10F
LAKE TAHOE, CA CLEAR     30  27  88 S3        30.04F
LAS VEGAS, NV  PTCLDY    54  47  77 SW6       29.80S
MAMMOTH LAKES, FAIR      30  26  82 NW3       30.05F
MEXICO CITY, M PTCLDY    63  34  34 S2        30.21F
PHOENIX, AZ    MOCLDY    65  37  35 W8        29.79S
PORTLAND, OR   CLOUDY    52  44  74 NW5       30.11F
RENO, NV       PTCLDY    46  31  55 W6        30.00F
SALT LAKE CITY MOCLDY    45  34  65 W5        29.85S
SAN DIEGO, CA  MOCLDY    60  49  66 S10       29.99F
SAN FRANCISCO, MOCLDY    50  45  83 W10       30.00S
SAN JOSE, CA   PTCLDY    53  47  79 SE5       30.00S
SEATTLE, WA    CLOUDY    50  42  74 SW6       30.09F
TIJUANA, MEX   MOCLDY    55  46  71 SE5       30.01

$$

STATION/POSITION TIME  TEMP    WIND        PRES    VSBY  WAVE
                       AIR SEA DIR/SP/G                  HT/PER
                 (UTC) (F)     (DEG/KT/KT) (MB)    (MI)  (FT/S)
POINT ARGUELLO B NOT AVBL
WEST SANTA BARBA 0950   53 53  320/ 23/ 29 1014.5R        11/15
POINT CONCEPTION NOT AVBL
EAST SANTA BARBA 0900   55 56  300/ 14/ 17 1014.3F
SANTA MONICA BAY 0950   56 58  350/ 10/ 12 1014.7F         5/ 7



USA.gov is the U.S. government's official web portal to all federal, state and local government web resources and services.